Regional Weather Roundup
Issued by NWS

Home | Current Version | Previous Version | Text Only | Print | Product List | Glossary Off
Versions: 1 2 3 4 5 6 7 8 9 10 11 12 13 14 15 16 17 18 19 20 21 22 23 24 25 26 27 28 29 30 31 32 33 34 35 36 37 38 39 40 41 42 43 44 45 46 47 48 49 50

748
ASUS43 KMPX 270201
RWRMN
WEATHER ROUNDUP FOR MINNESOTA
NATIONAL WEATHER SERVICE TWIN CITIES/CHANHASSEN MN
900 PM CDT MON SEP 26 2016


NOTE: "FAIR" INDICATES FEW OR NO CLOUDS BELOW 12,000 FEET WITH NO
SIGNIFICANT WEATHER AND/OR OBSTRUCTIONS TO VISIBILITY. N/A MEANS
CURRENT SKY AND/OR WEATHER CONDITIONS ARE NOT AVAILABLE.

MNZ060>063-068>070-270300-
   Twin Cities Metro

CITY           SKY/WX    TMP DP  RH WIND       PRES   REMARKS
TWIN CITIES    CLEAR     58  36  43 W10       29.88S
ST PAUL        CLEAR     57  36  45 W8        29.88R
CRYSTAL        CLEAR     56  35  45 W9        29.87S
BLAINE         CLEAR     55  37  50 W7        29.87S
LAKEVILLE      CLEAR     55  36  47 W6        29.89S
EDEN PRAIRIE   CLEAR     57  36  45 W7        29.88S
LAKEVILLE      CLEAR     55  36  47 W6        29.89S
SOUTH ST PAUL  CLEAR     58  35  41 W7        29.87S
LAKE ELMO      FAIR      54  37  54 W5        29.88R
$$
MNZ001>005-007-008-013>017-022>024-027-028-270300-
   Northwest Minnesota

CITY           SKY/WX    TMP DP  RH WIND       PRES   REMARKS
BEMIDJI        CLEAR     50  39  66 NW20G31   29.87S
HALLOCK        CLEAR     50  45  81 N7        29.93R
ROSEAU         CLOUDY    52  45  76 NW13      29.86S
WARROAD        CLOUDY    52  45  76 NW16      29.84S
THIEF RVR FALL CLEAR     49  43  80 NW12      29.92S
CROOKSTON      CLEAR     48  45  87 N7        29.94R
FOSSTON        CLEAR     46  41  81 NW7       29.92R
DETROIT LAKES  CLEAR     52  41  66 NW9       29.93S
MOORHEAD       CLEAR     54  28  37 NW10      29.95S
PARK RAPIDS    CLEAR     52  40  63 NW9       29.88S
MAHNOMEN       FAIR      46  41  82 NW5       29.91S
$$
MNZ006-009>011-018-025>026-270300-
   North Central Minnesota

CITY           SKY/WX    TMP DP  RH WIND       PRES   REMARKS
BAUDETTE       CLOUDY    52  44  74 NW21G28   29.79R
FLAG ISLAND    CLOUDY    52  46  82 NW22G29   29.78S
INTL FALLS     LGT RAIN  50  47  89 NW18G26   29.71S
WASKISH        CLOUDY    54  45  71 W17G28    29.81S
BIG FORK       CLOUDY    52  45  76 W6G20     29.77S
GRAND RAPIDS   CLOUDY    53  42  66 NW23G31   29.80F
ORR            LGT RAIN  48  45  87 W16G25    29.68F
COOK           RAIN      48  46  93 W17G26    29.71F
WALKER         FAIR      50  39  66 NW14G26   29.86S
$$
MNZ012-019>021-037-270300-
   Northeast Minnesota

CITY           SKY/WX    TMP DP  RH WIND       PRES   REMARKS
DULUTH         LGT RAIN  51  45  79 W20G28    29.72F
ELY            LGT RAIN  48  46  93 W8G25     29.64S
HIBBING        LGT RAIN  48  45  89 NW12G20   29.74F
EVELETH        LGT RAIN  50  47  90 W18G24    29.73S
DULUTH HARBOR  CLOUDY    55  46  71 W20G25    29.74S
TWO HARBORS    DRIZZLE   54  48  82 W13G24    29.66F
SILVER BAY     CLOUDY    52  48  87 W9        29.62F
GRAND MARAIS     N/A     51  48  89 SW7       29.54F
G MARAIS ARPRT CLOUDY    46  41  81 W13G21    29.53F
$$
MNZ029>031-032-039>041-046>048-054>057-064-270300-
   West Central Minnesota

CITY           SKY/WX    TMP DP  RH WIND       PRES   REMARKS
FERGUS FALLS   CLEAR     52  34  50 NW9       29.96S
MORRIS         CLEAR     50  34  53 NW7       29.96R
ALEXANDRIA     CLEAR     54  33  45 W10       29.95R
ELBOW LAKE     FAIR      55  32  42 NW13      29.95S
GLENWOOD       CLEAR     54  32  43 W12G17    29.94S
BENSON         CLEAR     50  30  46 N6        29.96S
ORTONVILLE     CLEAR     55  36  47 CALM      29.99R
MADISON          N/A     54  39  58 W8        29.99S
WILLMAR        FAIR      55  34  44 W9        29.96S
$$
MNZ033>034-036-042>043-049>051-058-059-270300-
   Central Minnesota

CITY           SKY/WX    TMP DP  RH WIND       PRES   REMARKS
ST CLOUD       CLEAR     49  40  71 W6        29.89R
SAUK CENTRE    FAIR      53  35  50 W8        29.92S
PAYNESVILLE    CLEAR     51  34  51 W8        29.93S
AITKIN         CLOUDY    57  39  51 NW10G17   29.82S
PINE RIVER     CLOUDY    55  43  62 NW14G23   29.90R
BRAINERD       MOCLDY    56  41  57 NW15G23   29.87R
STAPLES        CLEAR     52  39  62 NW10      29.89S
LONG PRAIRIE   FAIR      52  36  54 SW7       29.91S
LITTLE FALLS   CLEAR     54  37  54 W6        29.89S
LITCHFIELD     CLEAR     57  37  47 W10       29.93S
BUFFALO        CLEAR     55  37  51 W7        29.90S
MAPLE LAKE     CLEAR     56  38  51 W7        29.90S
HUTCHINSON     CLEAR     55  36  48 W8        29.94S
$$
MNZ037-044-045-052-053-270300-
   East Central Minnesota

CITY           SKY/WX    TMP DP  RH WIND       PRES   REMARKS
PRINCETON      CLEAR     52  39  62 W7        29.88S
MORA           CLOUDY    54  37  54 W7        29.85F
CAMBRIDGE      CLEAR     57  41  54 W8        29.84F
MOOSE LAKE     CLOUDY    54  41  62 W9        29.77F
HINCKLEY       CLOUDY    55  43  62 W8        29.81F
CLOQUET        CLOUDY    54  41  62 W17G28    29.75F
MCGREGOR       CLOUDY    55  43  62 NW14G23   29.81S
$$
MNZ071>073-080-081-089-090-097-098-270300-
   Southwest Minnesota

CITY           SKY/WX    TMP DP  RH WIND       PRES   REMARKS
MONTEVIDEO     CLEAR     55  34  44 NW6       29.99R
GRANITE FALLS  CLEAR     51  39  62 W9        29.99R
CANBY          CLEAR     55  37  51 W8        30.02R
MARSHALL       CLEAR     51  37  58 W9        30.00R
REDWOOD FALLS  CLEAR     56  35  45 W10       29.96R
OLIVIA         CLEAR     54  37  54 W8        29.95S
PIPESTONE      CLEAR     54  30  40 NW6       30.03S
WINDOM         CLEAR     50  37  62 W6        30.00S
WORTHINGTON    CLEAR     50  35  56 W9        30.03R
JACKSON        CLEAR     54  32  43 W8        30.01R
TRACY          CLEAR     56  37  49 W6        30.00S
$$
MNZ065>067-074>077-082>085-091>093-270300-
   South Central Minnesota

CITY           SKY/WX    TMP DP  RH WIND       PRES   REMARKS
MANKATO        CLEAR     57  34  41 W10       29.94R
ST JAMES       CLEAR     55  36  47 W8        29.98S
FAIRMONT       CLEAR     56  36  47 W9        29.98S
GLENCOE        CLEAR     57  38  47 W6        29.92R
FARIBAULT      CLEAR     55  39  54 W6        29.92S
OWATONNA       CLEAR     55  34  44 W9        29.92S
WASECA         CLEAR     52  36  54 W7        29.94S
ALBERT LEA     CLEAR     55  36  47 W3        29.95S
$$
MNZ078>079-086>088-094>096-270300-
   Southeast Minnesota

CITY           SKY/WX    TMP DP  RH WIND       PRES   REMARKS
ROCHESTER      CLEAR     53  37  54 W8        29.92R
RED WING       CLEAR     55  37  50 NW3       29.86S
DODGE CENTER   CLEAR     52  36  54 W7        29.92S
WINONA         CLEAR     61  34  36 W8        29.87F
AUSTIN         CLEAR     57  34  41 W9        29.93S
PRESTON        CLEAR     54  35  48 W9        29.92S
$$
ABBREVIATIONS USED IN REMARKS
   TC - TEMPERATURES IN CELSIUS
  WCI - WIND CHILL INDEX
   HX - HEAT INDEX
  VSB - VISIBILITY
$$




USA.gov is the U.S. government's official web portal to all federal, state and local government web resources and services.